Rochester, NY

3:52 AM EDT on May 30, 2017 (GMT -0400)
Greater Rochester International

Weather History for KROC - October, 2013

Change the Weather History Date:

Saturday, October 26, 2013

  Actual Average Record
Temperature  
Mean Temperature 43 °F 47 °F  
Max Temperature 47 °F 56 °F 79 °F (1963)
Min Temperature 39 °F 39 °F 24 °F (1887)
Degree Days  
Heating Degree Days 22 18  
Month to date heating degree days 260 359  
Since 1 July heating degree days 450 540  
Cooling Degree Days 0 0  
Month to date cooling degree days 10 0  
Year to date cooling degree days 660 534  
Moisture  
Dew Point 32 °F    
Average Humidity 65    
Maximum Humidity 85    
Minimum Humidity 45    
Precipitation  
Precipitation T in 0.09 in 1.74 in (1872)
Month to date precipitation 2.79 2.29  
Year to date precipitation 30.41 28.27  
Snow  
Snow 0.00 in 0.00 in 1.00 in (1934)
Month to date snowfall 0.0 0.0  
Since 1 July snowfall 0.0 0.0  
Since 1 September snowfall 0.0 0.0  
Snow Depth 0.00 in    
Sea Level Pressure  
Sea Level Pressure 29.90 in    
Wind  
Wind Speed 15 mph (SW)    
Max Wind Speed 32 mph    
Max Gust Speed 41 mph    
Visibility 10 miles    
Events Rain    
T = Trace of Precipitation, MM = Missing Value Source: NWS Daily Summary

Daily Weather History Graph

Daily Weather History Graph

Search for Another Location

Airport or City:

Trip Planner

Search our weather history database for the weather conditions in past years. The results will help you decide how hot, cold, wet, or windy it might be!

Date:

Astronomy

Oct. 26, 2013 Rise Set
Actual Time 7:38 AM EDT 6:10 PM EDT
Civil Twilight 7:08 AM EDT 6:39 PM EDT
Nautical Twilight 6:35 AM EDT 7:12 PM EDT
Astronomical Twilight 6:02 AM EDT 7:45 PM EDT
Moon No Moon Rise 1:54 PM EDT (10/26)
Length of Visible Light 11h 30m
Length of Day
10h 32m
Waning Gibbous, 53% of the Moon is Illuminated
Oct 26
Waning Gibbous
Oct 26
Last Quarter
Nov 3
New
Nov 10
First Quarter
Nov 17
Full

Hourly Weather History & Observations

Time (EDT) Temp. Windchill Dew Point Humidity Pressure Visibility Wind Dir Wind Speed Gust Speed Precip Events Conditions
12:54 AM 41.0 °F 35.8 °F 36.0 °F 82% 30.14 in 10.0 mi SW 8.1 mph - N/A   Overcast
1:54 AM 41.0 °F 31.9 °F 34.0 °F 76% 30.12 in 10.0 mi West 19.6 mph 24.2 mph N/A   Overcast
2:54 AM 39.0 °F 34.8 °F 35.1 °F 86% 30.10 in 10.0 mi WSW 5.8 mph - 0.00 in   Overcast
3:54 AM 39.0 °F 36.8 °F 35.1 °F 86% 30.06 in 10.0 mi SSW 3.5 mph - 0.00 in   Overcast
4:54 AM 39.0 °F - 36.0 °F 89% 30.03 in 10.0 mi Calm Calm - N/A   Overcast
5:54 AM 42.1 °F 36.1 °F 28.9 °F 60% 30.00 in 10.0 mi SW 10.4 mph 21.9 mph N/A   Overcast
6:54 AM 43.0 °F 37.2 °F 27.0 °F 53% 29.97 in 10.0 mi SSW 10.4 mph 20.7 mph N/A   Overcast
7:54 AM 42.1 °F 34.9 °F 27.0 °F 55% 29.94 in 10.0 mi SSW 13.8 mph 24.2 mph N/A   Overcast
8:54 AM 42.1 °F 35.2 °F 27.0 °F 55% 29.93 in 10.0 mi SSW 12.7 mph 21.9 mph N/A   Overcast
9:54 AM 43.0 °F 35.4 °F 27.0 °F 53% 29.90 in 10.0 mi SSW 16.1 mph 25.3 mph N/A   Overcast
10:54 AM 44.1 °F 36.8 °F 27.0 °F 51% 29.87 in 10.0 mi SW 16.1 mph 28.8 mph N/A   Overcast
11:54 AM 45.0 °F 38.2 °F 27.0 °F 49% 29.86 in 10.0 mi SW 15.0 mph - N/A   Overcast
12:54 PM 46.9 °F - 27.0 °F 46% 29.84 in 10.0 mi SW 27.6 mph 35.7 mph N/A   Overcast
1:54 PM 46.0 °F 38.5 °F 30.0 °F 54% 29.82 in 10.0 mi WSW 19.6 mph 32.2 mph N/A   Overcast
2:54 PM 45.0 °F 37.4 °F 33.1 °F 63% 29.83 in 10.0 mi WSW 18.4 mph 32.2 mph N/A   Overcast
3:54 PM 44.1 °F 35.4 °F 33.1 °F 65% 29.82 in 10.0 mi WSW 21.9 mph 31.1 mph N/A   Overcast
4:54 PM 46.0 °F 38.5 °F 30.9 °F 56% 29.82 in 10.0 mi WSW 19.6 mph 27.6 mph N/A   Mostly Cloudy
5:54 PM 46.0 °F 39.0 °F 30.9 °F 56% 29.81 in 10.0 mi SW 17.3 mph 25.3 mph N/A   Overcast
6:54 PM 46.0 °F 39.3 °F 30.9 °F 56% 29.81 in 10.0 mi SW 16.1 mph 23.0 mph N/A   Overcast
7:54 PM 46.0 °F 39.6 °F 30.9 °F 56% 29.81 in 10.0 mi SW 15.0 mph 24.2 mph N/A   Overcast
8:54 PM 45.0 °F 38.5 °F 30.9 °F 58% 29.82 in 10.0 mi WSW 13.8 mph - N/A   Overcast
9:24 PM 44.6 °F 38.4 °F 32.0 °F 61% 29.80 in 10.0 mi WSW 12.7 mph - 0.00 in Rain Light Rain
9:54 PM 43.0 °F 35.1 °F 34.0 °F 71% 29.83 in 10.0 mi WSW 17.3 mph 24.2 mph 0.00 in Rain Light Rain
10:44 PM 42.8 °F 35.1 °F 35.6 °F 76% 29.80 in 10.0 mi SW 16.1 mph 21.9 mph 0.00 in   Overcast
10:54 PM 42.1 °F 34.2 °F 35.1 °F 76% 29.83 in 10.0 mi WSW 16.1 mph - 0.00 in Rain Light Rain
11:23 PM 41.0 °F 33.9 °F 35.6 °F 81% 29.81 in 10.0 mi WSW 12.7 mph - 0.00 in   Overcast
11:44 PM 41.0 °F 33.1 °F 35.6 °F 81% 29.82 in 10.0 mi WSW 15.0 mph 21.9 mph 0.00 in Rain Light Rain
11:54 PM 41.0 °F 32.8 °F 36.0 °F 82% 29.84 in 10.0 mi SW 16.1 mph - 0.00 in   Overcast